DELTA 1 DEB, 19291

Orbit data source: Space-Track

DELTA 1 DEB, 19291 is space debris in SSO originally from a launch on Tue, 06 Nov 1973 UTC launched from the Air Force Western Test Range (AFWTR). Debris objects in space refer to the collection of defunct objects orbiting the Earth. Examples of debris include non-operational satellites, rocket bodies, and fragments generated from explosions, collisions, or faulty payload assembly.

Loading next visibility...
Identifier
19291, 1973-086HD
Orbit
SSO
Country
Flag of USUS
Related business
Manufacturer
Unknown
Mission
Spacecraft
Bus & Motor
Unknown
Mass
Unknown
Launch date (UTC)
1973-11-06 (52 years ago)
Launch vehicle
Unknown
Launch site
Air Force Western Test Range (AFWTR)
Object type
Payload
Rocket body
Debris
Shape & HBR
Unknown shape, 0.1 m
Radar Cross Section
Small (<0.1 m²)

Expand to show TLE details & history
Last TLE update: 21 hours ago

TLE from 21 hours ago
0 DELTA 1 DEB
1 19291U 73086HD  26123.89262426  .00000235  00000-0  18030-2 0  9993
2 19291 101.8343 102.6710 0029417 247.2334 140.2889 12.51612443727949
Epoch: 2026-05-03T21:25Z
TLE epoch observation values (Epoch: 2026-05-03T21:25:22.736Z)
Latitude
27.13621°
Longitude
-86.59806°
Altitude
1,478.54 km
Speed
7.118 km/s
True Right ascension
06h 26m 08s
True Declination
27° 00' 35"
Sunlit
Object was in daylight at epoch
Visualization orbit readout
Latitude
Unknown
Longitude
Unknown
Altitude
Unknown
Speed
Unknown
Apparent Right ascension
Unknown
Apparent Declination
Unknown
Sunlit
N/A
Visualization observer readout
Local Sidereal Time
02:32:16
Azimuth
Unknown
Elevation
Unknown
Doppler factor
Unknown
Orbital elements
Apogee altitude
1,478.351 km
Perigee altitude
1,432.264 km
Semi-major axis
7,833.444 km
Eccentricity
0.00294
Inclination
101.8343°
RAAN
102.671°
Arg. of periapsis
247.2334°
True anomaly
140.50367°
Mean anomaly
140.2889°
Eccentric anomaly
140.39634°
Mean motion
3.1305 °/min
Orbital period
115 mins
BSTAR
0.001803
Loading maneuver chart data...
Computing Atmospheric mass density...

Documentation

Showing up to 5 results
|